{"data":{"norad_id":50180,"epoch":"2026-05-25T01:15:55.694880Z","epoch_age_seconds":80683,"freshness":"FRESH","line1":"1 50180U 21125AA  26145.05272795  .00002852  00000+0  19728-3 0  9996","line2":"2 50180  53.2140 266.3188 0001752  91.3177 268.8016 15.08827793248171","mean_motion":15.08827793,"eccentricity":0.0001752,"inclination_deg":53.214,"raan_deg":266.3188,"arg_perigee_deg":91.3177,"mean_anomaly_deg":268.8016,"bstar":0.00019728,"rev_number":24817,"period_min":95.438326804469,"perigee_km":538.56868194994,"apogee_km":540.99272031241,"semimajor_km":6917.9177011312,"source":"CELESTRAK","updated_at":"2026-05-25T13:38:16.867119Z"}}